"Pseudo-MPEC" for A10VCQK
Created 2023 Jun 5 19:22:03 UT using Find_Orb
Click here for an explanation of pseudo-MPECs
Astrometry: A10VCQK* C2023 05 278H'nHK2se?WHZE#LfS1.EF2SdK\x
AstrometrytCjBJ^kPKd;Du=
M22 A10VCQK C2023 05 27%tA+`NoM=[=FRSxwhI!'nQR2Fv.dU\_:CgWl:NM@EsLyK-P:0+A$
M22 A10VCQK C2023 05 27]M6)#xGY[`M$M^pg2wb2Khevu;j+Fec]8ARhOg)EV;
redacted;o
M22 A10VCQK C2023 05 27DMm`_rNJn$?9/@$s#=Mx3YA!JrF3p$;=d5m%]qDv!SBrZt_:;!oe
M22 A10VCQK C2023 05 28MolaeJ(5Vq(5UyZ+YR`gtXGIq;dL0PvaEF=(5My=c.pw:PO=$3M^
M28 A10VCQK C2023 05 28471DA1$=L$C,Sp+KYnAV.K,bB0Oa]4ONysp0Rg6V+Yb9OGdc;_?#
M28 A10VCQK C2023 05 281%f-5oHL]w!\qql#8\3x;u7EvU.l:'o%-53B+[IhYJK*uqa3Tt1I
M28 A10VCQK C2023 05 28IHEWV7L^
clicka+kvg[T6Jg:Oqi2#.,h2UEZTV7F(O-ht),ae:Ri
M28 A10VCQK C2023 05 28'lrR\Ld9[J[G%'Z]r?Gg-AJn]ibi2D5*Pq1;dl?9EtY=m97:x6PF
M28 A10VCQK C2023 05 29M@/RSQ7)#HxAnAa=[vsN5dCoc3y/:s0LK;=/?-:3%[NB7/r18au5
M28 A10VCQK C2023 05 29V8H0H)@L/FgLU`kXB5,Mp78.Rgw/y?(;HHg2n.^In*fHbb^Ie?q#
M28 A10VCQK C2023 05 29'JDX3JW,Rr.U9@#GY'pcG%/(ig!;D(?i`Rmq^iF/\g2*F9c:rB#u
M28 A10VCQK C2023 05 29KmLb;/'^IYQAq+dq:G^MQ^@+![#D8Ro+IAGdPNT--uX9_PS,hZ7'
M28 A10VCQK C2023 05 29Uv(jTL(`Ah/=5MGdO!K]v^P6h]vVrh]'d@qrlSYhuh+1p,Oy.T6^
M28 A10VCQK KC2023 05 29lfNZJKkv9(##HtPo'/]#QBhGNqG6%7uL$#`(NQ$g4'E6Uu+\^B95
M21 A10VCQK KC2023 05 29[]GR^]2O2^S6D5P9,dt+OZ`f(%S!ajHm(_%2L=ebUZln@ViK0r_p
M21 A10VCQK C2023 05 29^WSeTYUVL8o,JA#i]eD1m^g6dxb#HG[U?FcxU?$GidK0h;n-9f?`
W79 A10VCQK C2023 05 29$,vB^9Fa:'YM1(y5PhUyBJGOdgn$kUU4mnZT.;KghQxJ*gTsA0Lc
W79 A10VCQK 1C2023 05 29ZMmxna#9pXMdLar4VC!DNSIYtW,pA2Y9T-hWF^iN
hereoiu)F^Dm
W57 A10VCQK 1C2023 05 29kGf%f6FRIkPWRhxV2Y'pTepLI:soy5A?KAqtDJUnBwGS/M2kw@Vm
W57 A10VCQK {C2023 05 29lYbfN$?=y_h@0=MgsAdqh=ZpOKmI[;;;W[C5!ah:).$F'QhTMR%o
Q62 A10VCQK {C2023 05 29o`ex13Gm(b9x_NSm*$K*_#r:P$?ysY?qk,r845T'3m/@n%3R]86C
Q62 A10VCQK 1C2023 05 29;/]EgVEa62[J+M8t[?aNN'v-nNj,e3HNJG;[FVqdC,h(3nycv'js
Q62 A10VCQK 1C2023 05 294^!%j@8lH=nx:tI%=UmEBN!6MdfU.9iF;nk[a]^$QFvK%nZLmol(
Q62 A10VCQK 1C2023 05 293X]vrBgO36K`nVbJ9O'acTTe.#16kCMg;./\]C_MHyu$bE'UNb7p
Q62 A10VCQK 0C2023 05 30J%(gos0w`+IbhF!on!js=iTr=hTgl0ltw;m-8-gwWPe#+4r,$E#m
W85 A10VCQK 0C2023 05 30yOdo=\0((^YxRAj9.hp8-NDBF*FE.nx]XmUQ*?3f#md/4UIBC?5P
W85 A10VCQK 0C2023 05 30mYLmcslqAj/S8d^B)r.,eMpS\?OY8dc`w6Sac2*jA7(_v$hHgOg:
W85 A10VCQK 0C2023 05 30E@PdI/4rb1.pLqp9U:ZGwtC!bEhk2\jR2T!u1inMUVw[(Gt]/^9)
W85 A10VCQK 0C2023 05 30[:E]k8?[D,j'UiO\x,ZZ4[.Kwq06kQrhk0aL/mp/OKx$.QdBex#s
W85 A10VCQK 0C2023 05 30J!kZkEKvEwdjbLqqsgH9X'!/kCtjFHn!mNm8Si8+T\mZSdSuj4]i
W85 A10VCQK 0C2023 05 302N2`rXbfZUn'Hp:-$v^*d8%.nm0+\vYn7,yL:/AAWC8KPp!*U+HG
W87 A10VCQK 0C2023 05 30dV;1@mqY;.?v-l6gXMdJxn@TxO_vJVk5Pk]G%xUxN=De3ew;O!mw
W87 A10VCQK 0C2023 05 30uGOKaO!e_G6l]7K\G$dHOQ4F=':o#;D(t]g3*hIQK;VabZLZ]UeK
W87 A10VCQK 0C2023 05 30\2h=7@A\x0`ewD-!u3RtXf8I0#tF5=coT^7j`5TFTRkbS@OoL#'9
W87 A10VCQK 0C2023 05 30$?hv7hf.Q[biL-P;aPp9u2Faohdv[B;xdliRXw^9_M@FW[..+!]q
W87 A10VCQK 0C2023 05 30HyX=Bw:#s/U8!DD3A('[0G'g(iO4k3+mf0bo$@BhuZCtYWoa^Pq+
W87 A10VCQK (C2023 05 3029g!B!F/a9PY$8N(XJJ._n(%w%=(QH:D5o@kpP,/Ze3rmp+=@9hu
E10 A10VCQK (C2023 05 30@mr0T+2HOIG4ySw31,1[k(!*+D%%kQ%,dhT9DLck:D8P#6'8'0me
E10 A10VCQK (C2023 05 30o7Dt)uT_[Mj2LpO=1k#u2ZenrF$eeMW/G`_Uy@Nd`R[5JFZf#0R]
E10 A10VCQK (C2023 05 30OF/v$NaQ+KSE0.D*\%ovW*e'PGSdj9y5%MQV3/XfrWp.\e+moJOy
E10 A10VCQK 0C2023 05 30JvR4PB(QuqVIHf6$vnjH%aV;;/Pf^Oj4\Y?$aJX#[F99Ba*jAE!\
Q63 A10VCQK 0C2023 05 30KEU\]+'rg:kE!;y3uVHAIb1FbRkchpZ4Lpq1wCR74QlOQZ$a(F1D
Q63 A10VCQK 0C2023 05 30dBjLN5jp,J*2@wryO/4V=1jBsrB*q`a2.wV$]/o!elsdu\RUlJg\
Q63 A10VCQK 0C2023 05 30l`/hDN$A:2rqjUQS$RrJ%]EiU.9BE_\TMZZU^UpJNg:]nbKffP#f
Q63 A10VCQK 0C2023 05 30FmA/`cTy.MYB)=wSg%@'c8OKcknsW:@x#';W':?.sak69DW9'Wh,
Q63 A10VCQK 0C2023 05 30t^xhXU]R.`3Ir:d7#7yH(lG_dexlvARq%*97:vjH7#K/riFO'yQ/
Q63 A10VCQK {C2023 05 30Exn0dGV:h.1GmK_-!)/8`4!X$a+U9:!7b1UcgpQO[SB,l)bu85MV
Q62 A10VCQK {C2023 05 30nQX/63H*4:Fyo0f?;!n8a:BI54$K;4sFF(\Y+@HEg!nQhhl^C;P*
Q62 A10VCQK {C2023 05 30Ur.EafJwIY_Yd[cm7Xx%Fj=i_mM;@5:'Ud
for]U;,Utli_r$?;Z=
Q62 A10VCQK KC2023 06 01tZak#G9+Y@0:vtw+i^;cP^b%uX_l,t-xwT7(JJ#Zy.o^wSya]]c_
M49 A10VCQK KC2023 06 01B42\ZVhp-BajGem')Fjy*gR^(6uFOuhaJxZZfPhclX0W%k;K5:/#
M49 A10VCQK KC2023 06 01Fm_6i_@N8R6:3WDU@6g*HlOcqeWZBWN[nqAh5Io!pchM.CGxd+F0
M49 A10VCQK 3C2023 06 015c'@bvxjWFaRhP!nWd=ElKCmJ-yJr44yh.;`_O`F(NQ)v+:;H`aN
X07 A10VCQK 3C2023 06 01]TxDSgjp/y1M9q#q_(BYa]t0w[8Z5j$Clud]kt6VGO'$)ycfU,E=
X07 A10VCQK KC2023 06 02Cs'@T?CcXfUSQlx%(U2\+o5H[E.QSCq-K+%*K47V'6[/Ebu[GkKI
X03 A10VCQK KC2023 06 02LpX-2c`/[H%`-^jX
explanationr\5SLJcq28,3)W]0Moq_X1nm3
X03 A10VCQK KC2023 06 02MT@1xS*ZB]`lWYmdlvu)`IxWbWCW$V^2Qp1*EL7,rl=Q_[D5WMv-
X03 Station data: (E10) Siding Spring-Faulkes Telescope South (S31.272803 E149.070850) Australia/NSW. Observer M. Micheli. Measurer P. Breitenstein. 2.0-m Ritchey-Chrétien + CCD. (M21) Schiaparelli Southern Observatory, Hakos (S23.236549 E16.361440) Namibia. Observers A. Aletti, F. Bellini, L. Buzzi, G. Galli. Measurer L. Buzzi. 0.36-m f/8.4 reflector + CCD. (M22) ATLAS South Africa, Sutherland (S32.380156 E20.810590) South Africa. Observers L. Denneau, R. Siverd, J. Tonry, H. Weiland. Measurers L. Denneau, N. Erasmus, A. Fitzsimmons, A. Lawrence, J. Robinson, R. Siverd, J. Tonry, H. Weiland. 0.5-m reflector + CCD. (M28) Lesedi Telescope-SAAO Observatory, Sutherland (S32.379790 E20.810640) South Africa. Observer N. Erasmus. 1.0-m f/8 Reflector + CCD. (M49) IAS Remote Observatory, Hakos (S23.236549 E16.361720) Namibia. (Q62) iTelescope Observatory, Siding Spring (S31.273286 E149.064420) Australia/NSW. Observers H. Sato, N. Paul. 0.51-m f/6.8 astrograph + CCD + f/4.5 focal reducer0.43-m f/6.8 astrograph + CCD + focal reducer0.43-m f/6.8 astrograph + CCD0.10-m f/5 astrograph + CCD0.127-m f/5.6 refractor + CCD0.50-m f/6.8 reflector + CCD0.30-m f/9 reflector + CCD. (Q63) Siding Spring-LCO A (S31.273000 E149.070640) Australia/NSW. Observer M. Micheli. 1.0-m f/8 Ritchey-Chrétien + CCD. (W57) ESA TBT La Silla Observatory (S29.255186 W70.739060) Chile. Observer F. Ocana. (W79) Cerro Tololo-LCO Aqawan B {#}1 (S30.167669 W70.804650) Chile. Observers T. Lister, J. Chatelain, E. Gomez, S. Greenstreet, I. Kosic. Measurer T. Lister. 0.4-m f/8.0 Schmidt-Cassegrain + CCD. (W85) Cerro Tololo-LCO A (S30.167404 W70.804810) Chile. Observer M. Micheli. Measurer T. Lister. 1.0-m f/8 Ritchey-Chrétien + CCD. (W87) Cerro Tololo-LCO C (S30.167454 W70.804680) Chile. Observer M. Micheli. Measurer T. Lister. 1.0-m f/8.0 Ritchey-Chrétien + CCD. (X03) Observatoire SADR, Poroto (S30.533914 W70.796390) Chile. Observers J. L. Virlichie, P. Traverse. 0.35-m f/4.7 Newtonian reflector + CCD. (X07) iTelescope Deep Sky Chile, Rio Hurtado (S30.526389 W70.853610) Chile. Orbital elements: A10VCQK Perihelion 2023 Sep 10.76676 +/- 0.808 TT = 18:24:08 (JD 2460198.26676) Epoch 2023 Jun 2.0 TT = JDT 2460097.5 Ne: 0.8531 AutoNEOCP M 359.37866657 +/- 0.23 (J2000 ecliptic) n 0.00616605 +/- 0.0023 Peri. 339.00462 +/- 0.39 a 29.4531064 +/- 8.07 Node 224.21465 +/- 0.12 e 0.9312677 +/- 0.0173 Incl. 137.90755 +/- 0.023 P 159.84 H 14.30 G 0.15 U 8.7 q 2.02437769 +/- 0.00375 Q 56.8818351 +/- 16.2 51 of 58 observations 2023 May 27-June 2; mean residual 0".36
